STARLINK-3818, 52340

Orbit data source: Space-Track

STARLINK-3818, 52340 is a payload satellite owned by SpaceX/Seattle (US) in LEO that was launched on Fri, 29 Apr 2022 UTC via an FALCON 9 launch vehicle from the Air Force Eastern Test Range (AFETR). Payload-class satellites include a variety of spacecraft equipped with specific instruments for various scientific and technological missions. These include communications satellites like Starlink; space stations such as the ISS; scientific satellites like the Hubble; Earth observation satellites from companies like Planet Labs, Umbra, and HawkEye 360; GPS; miniature CubeSats for education and research; and military/defense satellites.

Loading next visibility...
Identifier
52340, 2022-045K
Orbit
LEO
Country
Flag of USUS
Related business
Manufacturer
SpaceX/Seattle
Mission
Operational Commercial Communications
Bus & Motor
STARLINK, Unknown motor
Mass
297 kg wet, ~275 kg dry
Launch date (UTC)
2022-04-29 (4 years ago)
Launch vehicle
FALCON 9
Launch site
Air Force Eastern Test Range (AFETR)
Object type
Payload
Rocket body
Debris
Shape & HBR
Box + 1 Pan, 10.1 m
Radar Cross Section
11.087 m², Large (>1 m²)

Expand to show TLE details & history
Last TLE update: 17 hours ago

TLE from 17 hours ago
0 STARLINK-3818
1 52340U 22045K   25349.92835575  .00001223  00000-0  94883-4 0  9998
2 52340  53.2158 215.1397 0001478  79.1769 280.9390 15.08843311203120
Epoch: 2025-12-15T22:16Z
TLE epoch observation values (Epoch: 2025-12-15T22:16:49.936Z)
Latitude
0.00001°
Longitude
156.11175°
Altitude
540.437 km
Speed
7.593 km/s
True Right ascension
14h 20m 33s
True Declination
0° 00' 00"
Sunlit
Object was in daylight at epoch
Visualization orbit readout
Latitude
Unknown
Longitude
Unknown
Altitude
Unknown
Speed
Unknown
Apparent Right ascension
Unknown
Apparent Declination
Unknown
Sunlit
N/A
Visualization observer readout
Local Sidereal Time
13:42:17
Azimuth
Unknown
Elevation
Unknown
Doppler factor
Unknown
Orbital elements
Apogee altitude
541.001 km
Perigee altitude
538.956 km
Semi-major axis
6,918.115 km
Eccentricity
0.00015
Inclination
53.2158°
RAAN
215.1397°
Arg. of periapsis
79.1769°
True anomaly
280.92237°
Mean anomaly
280.939°
Eccentric anomaly
280.93069°
Mean motion
3.77191 °/min
Orbital period
95.44 mins
BSTAR
0.000094883
Loading maneuver chart data...
Computing Atmospheric mass density...
Loading historical data...
Loading historical data...
Loading historical data...
Loading historical data...
Loading historical data...
Loading historical data...
Loading historical data...

Documentation

Showing up to 5 results
|